Hlavní strana
METAR-TAF:

METAR-TAF

Letiště :

Selma, Alabama, Spojené státy americké

zeměpisná šířka: 32-20-38N, zeměpisná délka: 086-59-16W, výška: 51 m

Aktuální stav počasí

Zpráva byla vytvořena před 21 minutami, v 00:15 UTC
Bezvětří
Teplota 10°C
Vlhkost vzduchu 76%
Tlak 1017 hPa
Viditelnost: 16.1 km

METAR: KSEM 270015Z AUTO 00000KT 10SM 10/06 A3004 RMK AO2

Čas: 18:36 (00:36 UTC)


TAF: chybějící

Stav a předpovědi počasí z více než 4 000 letišť (zprávy METAR a TAF).

Červené a žluté tečky na mapě představují dostupné meteorologické stanice.

Když kurzor umístíte na tečku, zobrazí se název stanice.

Pak kliknutím zobrazíte stav a předpověď počasí.

Chcete-li změnit mapu, kliknutím na zelené tlačítko se znaménkem +mapu přiblížíte, kliknutím na zelené tlačítko se znaménkem – mapu oddálíte a kliknutím na zelené šipky přejdete na sousední mapy.


METAR-TAF: